Location: Squirrel Cove
(50.1074°N, 124.9139°W)
Time: 19:42:18
(UTC-08:00)

Envisat - Pass Details

Date: 04 December 2022
Orbit: 763 x 765 km, 98.2° (Epoch: 05 February)

Event Time Altitude Azimuth Distance (km) Brightness Sun altitude
Rises 05:41:53 0° 7° (N) 3,247 6.2 -21.3°
Reaches altitude 10° 05:44:22 10° 359° (N) 2,316 5.4 -20.9°
Enters shadow 05:47:09 26° 333° (NNW) 1,474 4.1 -20.5°
